Terminal Aerodrome Forecast
Issued by NWS

Home | Current Version | Previous Version | Text Only | Print | Product List | Glossary On
Versions: 1 2 3 4 5 6 7 8 9 10 11 12 13 14 15 16 17 18
000
FTUS41 KPHI 161500 AAB
TAFMIV
TAF AMD
KMIV 161508Z 1615/1712 32009KT P6SM BKN020
     FM161600 33009KT P6SM SCT035
      TEMPO 1616/1620 BKN035
     FM162300 35002KT P6SM SKC=

USA.gov is the U.S. government's official web portal to all federal, state and local government web resources and services.